Rochester, NH

10:04 AM EDT on June 23, 2017 (GMT -0400)
Skyhaven

Weather History for KDAW - December, 2012

Change the Weather History Date:

Friday, December 14, 2012

  Actual Average (KPSM) Record (KPSM)
Temperature  
Mean Temperature 34 °F -  
Max Temperature 45 °F 38 °F 57 °F (2006)
Min Temperature 24 °F 23 °F -5 °F (1976)
Degree Days  
Heating Degree Days 30    
Moisture  
Dew Point 23 °F    
Average Humidity 61    
Maximum Humidity 88    
Minimum Humidity 37    
Precipitation  
Precipitation 0.00 in - - ()
Sea Level Pressure  
Sea Level Pressure 30.11 in    
Wind  
Wind Speed 2 mph (West)    
Max Wind Speed 10 mph    
Max Gust Speed 22 mph    
Visibility 10 miles    
Events      
Averages and records for this station are not official NWS values.
T = Trace of Precipitation, MM = Missing Value Source: NWS Daily Summary

Daily Weather History Graph

Daily Weather History Graph

Search for Another Location

Airport or City:

Trip Planner

Search our weather history database for the weather conditions in past years. The results will help you decide how hot, cold, wet, or windy it might be!

Date:

Astronomy

Dec. 14, 2012 Rise Set
Actual Time 7:08 AM EST 4:08 PM EST
Civil Twilight 6:36 AM EST 4:41 PM EST
Nautical Twilight 6:00 AM EST 5:17 PM EST
Astronomical Twilight 5:25 AM EST 5:51 PM EST
Moon 8:09 AM EST (12/14) 5:59 PM EST (12/14)
Length of Visible Light 10h 05m
Length of Day
9h 00m
Waxing Crescent, 3% of the Moon is Illuminated
Dec 14
Waxing Crescent
Dec 20
First Quarter
Dec 28
Full
Jan 4
Last Quarter
Jan 11
New

Hourly Weather History & Observations

Time (EST) Temp. Windchill Dew Point Humidity Pressure Visibility Wind Dir Wind Speed Gust Speed Precip Events Conditions
12:51 AM 25.0 °F - 19.9 °F 81% 30.23 in 10.0 mi Calm Calm - N/A   Clear
2:51 AM 26.1 °F - 21.0 °F 81% 30.22 in 10.0 mi Calm Calm - N/A   Clear
3:51 AM 24.1 °F - 21.0 °F 88% 30.19 in 9.0 mi Calm Calm - N/A   Clear
4:51 AM 24.1 °F - 21.0 °F 88% 30.18 in 10.0 mi Calm Calm - N/A   Clear
5:51 AM 25.0 °F - 19.9 °F 81% 30.17 in 10.0 mi Calm Calm - N/A   Clear
6:51 AM 25.0 °F - 19.9 °F 81% 30.16 in 10.0 mi Calm Calm - N/A   Clear
7:51 AM 28.0 °F - 21.9 °F 78% 30.15 in 10.0 mi Calm Calm - N/A   Clear
8:51 AM 33.1 °F - 24.1 °F 70% 30.14 in 10.0 mi Calm Calm - N/A   Clear
10:51 AM 39.0 °F 36.8 °F 25.0 °F 57% 30.09 in 10.0 mi Variable 3.5 mph - N/A   Clear
11:51 AM 42.1 °F 37.7 °F 23.0 °F 47% 30.04 in 10.0 mi SW 6.9 mph - N/A   Clear
12:51 PM 44.1 °F 39.0 °F 19.9 °F 38% 30.02 in 10.0 mi West 9.2 mph - N/A   Clear
1:51 PM 45.0 °F 39.7 °F 19.9 °F 37% 30.02 in 10.0 mi WNW 10.4 mph 16.1 mph N/A   Clear
2:51 PM 45.0 °F 40.6 °F 19.9 °F 37% 30.02 in 10.0 mi West 8.1 mph - N/A   Clear
3:51 PM 43.0 °F 38.2 °F 21.9 °F 43% 30.04 in 10.0 mi WNW 8.1 mph 21.9 mph N/A   Clear
4:51 PM 42.1 °F 39.2 °F 23.0 °F 47% 30.06 in 10.0 mi Variable 4.6 mph - N/A   Clear
5:51 PM 41.0 °F 37.1 °F 23.0 °F 49% 30.08 in 10.0 mi West 5.8 mph - N/A   Mostly Cloudy
6:51 PM 39.9 °F 36.7 °F 24.1 °F 53% 30.09 in 10.0 mi West 4.6 mph - N/A   Mostly Cloudy
7:51 PM 39.0 °F 36.8 °F 25.0 °F 57% 30.10 in 10.0 mi Variable 3.5 mph - N/A   Scattered Clouds
8:51 PM 37.9 °F 35.5 °F 25.0 °F 60% 30.11 in 10.0 mi WSW 3.5 mph - N/A   Partly Cloudy
9:51 PM 37.9 °F 35.5 °F 26.1 °F 62% 30.11 in 10.0 mi Variable 3.5 mph - N/A   Overcast
10:51 PM 39.0 °F 36.8 °F 26.1 °F 60% 30.13 in 10.0 mi Variable 3.5 mph - N/A   Overcast
11:51 PM 39.0 °F - 25.0 °F 57% 30.13 in 10.0 mi Calm Calm - N/A   Overcast